Total_Precipitation_Accumulation
1.05 1.22 1.12 0.80 0.69 0.60 0.51 0.52 0.53 0.44 0.38 0.53 0.48 0.36 0.26 0.24 0.24 0.29 0.39 0.44 0.51 0.50 0.52 0.64 0.80 0.98 1.16 1.31 1.40 1.47 1.66 1.75 1.97 2.13 2.03 1.93 1.85 1.83 1.79 1.75 1.75 1.71 1.73 1.72
1.21 0.99 0.59 0.48 0.52 0.58 0.63 0.66 0.59 0.50 0.43 0.58 0.55 0.41 0.29 0.28 0.27 0.29 0.37 0.42 0.46 0.48 0.55 0.63 0.77 0.92 1.06 1.18 1.26 1.34 1.54 1.72 1.88 2.02 1.98 1.86 1.82 1.80 1.80 1.76 1.82 1.90 1.91 1.90
1.00 0.64 0.40 0.59 0.73 0.73 0.66 0.61 0.56 0.53 0.53 0.60 0.63 0.54 0.34 0.29 0.25 0.30 0.35 0.42 0.48 0.45 0.49 0.55 0.67 0.82 0.95 1.07 1.13 1.26 1.49 1.68 1.90 2.07 2.21 2.15 2.13 2.09 2.02 1.90 1.82 1.81 1.86 1.83
0.77 0.47 0.47 0.68 0.78 0.73 0.66 0.43 0.45 0.55 0.80 0.91 0.75 0.84 0.45 0.33 0.28 0.31 0.34 0.36 0.43 0.45 0.49 0.56 0.64 0.74 0.86 0.97 1.05 1.18 1.50 1.73 1.90 2.05 2.15 2.21 2.15 2.07 1.96 1.85 1.79 1.73 1.70 1.71
0.90 0.56 0.56 0.67 0.62 0.62 0.58 0.42 0.48 0.65 0.88 0.98 0.73 0.85 0.52 0.34 0.37 0.35 0.36 0.35 0.36 0.39 0.44 0.53 0.61 0.72 0.85 0.97 1.01 1.12 1.34 1.61 1.83 2.01 2.06 2.11 2.09 2.01 1.98 1.99 1.95 1.93 1.84 1.74
0.68 0.48 0.57 0.56 0.46 0.55 0.64 0.73 0.83 0.95 1.37 1.56 0.64 0.61 0.49 0.40 0.49 0.44 0.39 0.36 0.33 0.36 0.40 0.50 0.61 0.70 0.84 1.06 1.10 1.13 1.24 1.43 1.68 1.87 1.93 1.95 1.95 1.92 1.91 1.96 1.95 1.93 1.85 1.73
0.91 0.61 0.52 0.50 0.68 0.84 1.05 1.54 2.28 2.41 2.37 1.41 0.37 0.41 0.50 0.40 0.40 0.45 0.45 0.38 0.32 0.34 0.40 0.45 0.57 0.72 0.80 0.99 1.09 1.16 1.23 1.27 1.46 1.70 1.80 1.75 1.81 1.77 1.73 1.79 1.77 1.73 1.71 1.64
0.98 0.80 0.56 0.54 0.76 1.06 1.15 1.42 1.80 1.69 1.17 0.57 0.27 0.32 0.39 0.36 0.33 0.34 0.38 0.35 0.31 0.32 0.40 0.44 0.47 0.65 0.81 0.89 0.99 1.10 1.19 1.24 1.33 1.46 1.62 1.66 1.78 1.76 1.67 1.68 1.68 1.62 1.55 1.49
0.98 0.67 0.38 0.41 0.47 0.63 0.96 1.10 0.97 1.20 0.82 0.56 0.42 0.28 0.27 0.24 0.26 0.26 0.32 0.35 0.37 0.38 0.42 0.46 0.49 0.61 0.75 0.83 0.90 1.04 1.15 1.27 1.29 1.30 1.45 1.54 1.62 1.67 1.61 1.57 1.56 1.54 1.48 1.47
1.09 0.92 0.44 0.41 0.56 0.65 0.77 0.88 1.15 1.64 1.37 0.75 0.40 0.27 0.34 0.31 0.31 0.28 0.32 0.38 0.40 0.42 0.42 0.46 0.54 0.61 0.72 0.80 0.87 0.98 1.05 1.22 1.38 1.34 1.37 1.49 1.53 1.58 1.60 1.53 1.48 1.38 1.34 1.41
1.08 1.24 0.78 0.65 0.85 0.82 0.77 1.05 1.34 1.47 1.21 0.89 0.52 0.40 0.42 0.38 0.37 0.38 0.38 0.44 0.48 0.48 0.47 0.49 0.59 0.67 0.71 0.77 0.85 1.01 1.07 1.16 1.37 1.46 1.42 1.44 1.51 1.55 1.60 1.59 1.47 1.33 1.26 1.29
1.03 1.43 1.10 0.66 0.55 0.53 0.65 0.84 1.06 1.41 1.14 0.74 0.62 0.43 0.32 0.30 0.32 0.34 0.38 0.43 0.51 0.52 0.55 0.57 0.66 0.71 0.72 0.77 0.83 0.95 1.01 1.09 1.27 1.44 1.52 1.49 1.50 1.61 1.64 1.57 1.50 1.43 1.36 1.31
1.62 2.05 1.75 1.26 0.96 0.83 0.93 0.83 0.84 0.97 1.02 0.79 0.67 0.42 0.25 0.18 0.19 0.24 0.33 0.43 0.49 0.50 0.57 0.62 0.66 0.67 0.72 0.75 0.82 0.95 0.98 0.97 1.07 1.26 1.42 1.55 1.58 1.62 1.67 1.62 1.52 1.50 1.50 1.46
2.17 2.32 1.55 1.27 1.01 0.91 0.90 0.71 0.72 1.05 1.27 0.73 0.42 0.36 0.24 0.19 0.21 0.26 0.32 0.40 0.47 0.51 0.56 0.55 0.57 0.63 0.70 0.67 0.73 0.88 0.95 0.94 0.93 1.07 1.26 1.39 1.51 1.63 1.67 1.66 1.62 1.55 1.52 1.50
2.11 2.06 0.89 0.49 0.40 0.50 0.57 0.51 0.57 0.77 0.74 0.65 0.35 0.30 0.33 0.35 0.36 0.38 0.41 0.41 0.42 0.48 0.54 0.55 0.56 0.61 0.65 0.62 0.66 0.76 0.88 0.90 0.90 0.94 1.09 1.28 1.39 1.56 1.64 1.64 1.63 1.64 1.65 1.53
1.88 1.84 0.93 0.54 0.30 0.40 0.47 0.40 0.40 0.45 0.42 0.39 0.27 0.25 0.23 0.29 0.32 0.35 0.41 0.45 0.47 0.52 0.56 0.55 0.55 0.55 0.59 0.61 0.65 0.69 0.77 0.82 0.88 0.93 0.96 1.15 1.36 1.51 1.60 1.61 1.64 1.64 1.64 1.60
1.73 1.72 1.47 0.92 0.42 0.71 0.83 0.51 0.46 0.46 0.42 0.43 0.45 0.39 0.27 0.26 0.32 0.41 0.46 0.49 0.51 0.56 0.60 0.58 0.56 0.56 0.59 0.60 0.63 0.68 0.73 0.77 0.81 0.81 0.84 0.97 1.16 1.35 1.48 1.54 1.61 1.72 1.70 1.64
1.34 1.52 1.89 1.41 1.07 1.42 0.78 0.40 0.40 0.48 0.52 0.49 0.47 0.40 0.36 0.36 0.38 0.41 0.50 0.57 0.54 0.57 0.60 0.58 0.59 0.59 0.60 0.60 0.61 0.67 0.70 0.69 0.71 0.72 0.72 0.79 0.92 1.09 1.29 1.46 1.53 1.62 1.72 1.71
0.80 1.42 2.15 1.93 1.52 0.91 0.44 0.36 0.51 0.58 0.60 0.53 0.47 0.38 0.34 0.31 0.31 0.36 0.44 0.58 0.66 0.65 0.61 0.58 0.57 0.55 0.55 0.58 0.62 0.61 0.64 0.67 0.66 0.67 0.69 0.70 0.77 0.89 1.06 1.25 1.37 1.49 1.60 1.64
0.83 1.38 2.29 2.10 1.63 0.89 0.50 0.33 0.36 0.50 0.69 0.48 0.45 0.44 0.40 0.38 0.42 0.45 0.47 0.55 0.63 0.61 0.58 0.57 0.53 0.49 0.51 0.57 0.60 0.59 0.62 0.64 0.67 0.67 0.68 0.69 0.73 0.77 0.89 1.05 1.21 1.37 1.48 1.55
1.17 1.79 2.11 1.65 1.40 0.74 0.45 0.32 0.32 0.68 0.79 0.46 0.46 0.51 0.49 0.53 0.55 0.51 0.45 0.46 0.52 0.53 0.53 0.51 0.48 0.47 0.53 0.56 0.58 0.62 0.61 0.64 0.65 0.63 0.63 0.66 0.67 0.70 0.78 0.95 1.09 1.24 1.37 1.47
0.87 1.18 1.17 1.09 1.33 0.84 0.45 0.40 0.64 0.79 0.51 0.45 0.44 0.47 0.50 0.48 0.46 0.45 0.43 0.42 0.41 0.44 0.44 0.47 0.47 0.49 0.52 0.53 0.57 0.64 0.63 0.61 0.60 0.58 0.58 0.61 0.61 0.65 0.72 0.86 1.00 1.12 1.28 1.41
0.64 0.84 0.87 0.81 0.78 0.59 0.53 0.61 0.63 0.57 0.52 0.45 0.46 0.44 0.47 0.48 0.47 0.44 0.40 0.39 0.39 0.40 0.40 0.42 0.46 0.48 0.50 0.51 0.55 0.64 0.64 0.59 0.55 0.55 0.56 0.57 0.60 0.64 0.68 0.75 0.89 1.10 1.20 1.31
0.47 0.45 0.60 0.61 0.48 0.40 0.39 0.41 0.45 0.47 0.49 0.45 0.46 0.48 0.47 0.48 0.46 0.40 0.34 0.34 0.35 0.36 0.38 0.38 0.40 0.44 0.50 0.54 0.56 0.59 0.61 0.59 0.52 0.54 0.56 0.56 0.59 0.66 0.65 0.69 0.79 0.99 1.15 1.25
0.44 0.42 0.48 0.52 0.40 0.34 0.30 0.32 0.36 0.38 0.36 0.35 0.37 0.43 0.46 0.44 0.39 0.34 0.31 0.29 0.31 0.35 0.36 0.37 0.39 0.44 0.54 0.61 0.58 0.54 0.56 0.57 0.53 0.54 0.58 0.57 0.57 0.63 0.67 0.73 0.80 0.90 1.04 1.27
0.38 0.43 0.51 0.52 0.41 0.46 0.38 0.31 0.31 0.31 0.31 0.32 0.33 0.35 0.37 0.37 0.34 0.29 0.28 0.29 0.30 0.32 0.33 0.35 0.37 0.41 0.50 0.56 0.56 0.52 0.53 0.54 0.55 0.56 0.56 0.59 0.62 0.62 0.64 0.73 0.87 0.99 1.04 1.15